Kars, Turkey

9:44 AM +03 on October 22, 2017 (GMT +0300)
Kars

Weather History for LTCF - October, 2013

Change the Weather History Date:

Tuesday, October 8, 2013

  Actual Average Record
Temperature  
Mean Temperature 37 °F -  
Max Temperature 48 °F 53 °F - ()
Min Temperature 26 °F 30 °F - ()
Degree Days  
Heating Degree Days 28    
Moisture  
Dew Point 25 °F    
Average Humidity 64    
Maximum Humidity 86    
Minimum Humidity 30    
Precipitation  
Precipitation 0.00 in 0.05 in - ()
Sea Level Pressure  
Sea Level Pressure 30.36 in    
Wind  
Wind Speed 4 mph ()    
Max Wind Speed 8 mph    
Max Gust Speed -    
Visibility 6.2 miles    
Events      
T = Trace of Precipitation, MM = Missing Value Source: Averaged Metar Reports

Daily Weather History Graph

Daily Weather History Graph

Search for Another Location

Airport or City:

Trip Planner

Search our weather history database for the weather conditions in past years. The results will help you decide how hot, cold, wet, or windy it might be!

Date:

Astronomy

Oct. 08, 2013 Rise Set
Actual Time 6:11 AM EEST 5:38 PM EEST
Civil Twilight 5:43 AM EEST 6:05 PM EEST
Nautical Twilight 5:12 AM EEST 6:37 PM EEST
Astronomical Twilight 4:40 AM EEST 7:08 PM EEST
Moon 9:42 AM EEST (10/8) 7:54 PM EEST (10/8)
Length of Visible Light 12h 22m
Length of Day
11h 27m
Waxing Crescent, 13% of the Moon is Illuminated
Oct 8
Waxing Crescent
Oct 12
First Quarter
Oct 19
Full
Oct 27
Last Quarter
Nov 3
New

Hourly Weather History & Observations

Time (EEST) Temp. Windchill Dew Point Humidity Pressure Visibility Wind Dir Wind Speed Gust Speed Precip Events Conditions
12:50 AM 30.2 °F 23.4 °F 24.8 °F 80% 30.33 in 6.2 mi ENE 6.9 mph - N/A   Scattered Clouds
1:50 AM 28.4 °F 21.2 °F 23.0 °F 80% 30.33 in 6.2 mi East 6.9 mph - N/A   Scattered Clouds
3:00 AM 28 °F - 24 °F 77%  in 6 mi East 5.8 mph - -   Partly Cloudy
3:50 AM 28.4 °F 21.2 °F 23.0 °F 80% 30.33 in 6.2 mi East 6.9 mph - N/A   Scattered Clouds
4:50 AM 28.4 °F 22.2 °F 24.8 °F 86% 30.33 in 6.2 mi East 5.8 mph - N/A   Scattered Clouds
5:50 AM 30.2 °F 24.3 °F 24.8 °F 80% 30.33 in 6.2 mi East 5.8 mph - N/A   Scattered Clouds
6:50 AM 28.4 °F - 24.8 °F 86% 30.33 in 6.2 mi Calm Calm - N/A   Mostly Cloudy
7:50 AM 30.2 °F - 26.6 °F 86% 30.36 in 6.2 mi Calm Calm - N/A   Mostly Cloudy
8:50 AM 37.4 °F - 28.4 °F 70% 30.36 in 6.2 mi Calm Calm - N/A   Scattered Clouds
9:00 AM 38 °F - 28 °F 55%  in 6 mi Calm Calm - -   Partly Cloudy
9:50 AM 39.2 °F 34.2 °F 23.0 °F 52% 30.36 in 6.2 mi East 6.9 mph - N/A   Scattered Clouds
10:50 AM 41.0 °F 35.8 °F 23.0 °F 49% 30.36 in 6.2 mi ENE 8.1 mph - N/A   Scattered Clouds
11:50 AM 44.6 °F 40.7 °F 24.8 °F 46% 30.36 in 6.2 mi NE 6.9 mph - N/A   Scattered Clouds
12:50 PM 44.6 °F 40.2 °F 26.6 °F 49% 30.36 in 6.2 mi ENE 8.1 mph - N/A   Scattered Clouds
1:50 PM 46.4 °F 42.4 °F 23.0 °F 40% 30.33 in 6.2 mi ENE 8.1 mph - N/A   Scattered Clouds
2:50 PM 46.4 °F 42.9 °F 24.8 °F 43% 30.36 in 6.2 mi East 6.9 mph - N/A   Scattered Clouds
3:00 PM 46 °F - 24 °F 30%  in 6 mi East 6.9 mph - -   Partly Cloudy
3:50 PM 46.4 °F 43.5 °F 23.0 °F 40% 30.36 in 6.2 mi NE 5.8 mph - N/A   Scattered Clouds
4:50 PM 46.4 °F - 21.2 °F 37% 30.36 in 6.2 mi Variable 1.2 mph - N/A   Scattered Clouds
5:50 PM 42.8 °F 38.6 °F 30.2 °F 61% 30.36 in 6.2 mi ESE 6.9 mph - N/A   Scattered Clouds
6:50 PM 37.4 °F 32.1 °F 28.4 °F 70% 30.39 in 6.2 mi ENE 6.9 mph - N/A   Scattered Clouds
7:50 PM 35.6 °F - 28.4 °F 75% 30.39 in 6.2 mi Variable 1.2 mph - N/A   Partly Cloudy
8:50 PM 37.4 °F - 28.4 °F 70% 30.42 in - Variable 2.3 mph - N/A   Clear
9:00 PM 37 °F - 28 °F 59%  in 6 mi NE 2.3 mph - -  
9:50 PM 35.6 °F - 26.6 °F 70% 30.42 in - Variable 2.3 mph - N/A   Clear
10:50 PM 35.6 °F - 26.6 °F 70% 30.42 in - Variable 1.2 mph - N/A   Clear
11:50 PM 30.2 °F 25.4 °F 24.8 °F 80% 30.42 in - NNE 4.6 mph - N/A   Clear